Flag for Canada Weather past 2 weeks in Greater Sudbury, Ontario, Canada

Now
52 °F

Overcast.


Feels Like: 51 °F
Forecast: 50 / 66 °F
Wind: 5 mph from Northwest

Location: Sudbury

Current Time: Jul 30, 2014 at 2:01:41 AM

Latest Report: Jul 30, 2014 at 1:00 AM


Visibility: 15 mi

Pressure: 29.92 "Hg

Humidity: 100%

Dew point: 52 °F

Location of Greater SudburyLocation

Historic Weather in Greater Sudbury — Graph

°F

Greater Sudbury temperature yesterday

Maximum temperature yesterday: 64 °F (at 3:00 PM)
Minimum temperature yesterday: 48 °F (at 12:00 AM)
Average temperature yesterday: 56 °F

Past Weeks' High & Low Weather Summary

 TemperatureHumidityPressure
High81 °F (Jul 22, 12:00 PM)100% (Jul 15, 6:53 AM)30.21 "Hg (Jul 15, 6:53 AM)
Low46 °F (Jul 24, 3:00 AM)41% (Jul 17, 4:00 PM)29.66 "Hg (Jul 27, 4:45 AM)
Average62 °F78%29.94 "Hg
* Reported Jul 15 1:00 AM — Jul 30 1:00 AM, Greater Sudbury, Weather by CustomWeather, © 2014

Note: Actual official high and low records may vary slightly from our data, if they occured in-between our weather recording intervals... More about our weather records

Advertising

Greater Sudbury weather history for previous 24 hours

 ConditionsComfort  
Time TempWeatherWind HumidityBarometerVisibility
1:00 AM
Jul 30
52 °FOvercast.5 mph100%29.92 "Hg15 mi
12:00 AM52 °FPassing clouds.2 mph100%29.91 "Hg15 mi
11:00 PM
Jul 29
54 °FMostly cloudy.3 mph100%29.91 "Hg15 mi
10:00 PM55 °FSprinkles. Partly cloudy.3 mph94%29.91 "Hg15 mi
9:00 PM55 °FSprinkles. Mostly cloudy.7 mph94%29.90 "Hg15 mi
8:00 PM59 °FPartly sunny.5 mph88%29.89 "Hg15 mi
7:00 PM63 °FPartly sunny.8 mph73%29.87 "Hg20 mi
6:00 PM63 °FPartly sunny.6 mph73%29.88 "Hg20 mi
5:00 PM61 °FPartly sunny.No wind77%29.88 "Hg20 mi
4:00 PM57 °FSprinkles. Broken clouds.7 mph88%29.87 "Hg20 mi
3:00 PM64 °FThunderstorms. Partly sunny.6 mph68%29.87 "Hg20 mi
2:00 PM63 °FSprinkles. Broken clouds.7 mph77%29.88 "Hg20 mi
1:00 PM61 °FSprinkles. More clouds than sun.8 mph88%29.89 "Hg20 mi
12:00 PM59 °FSprinkles. Broken clouds.6 mph94%29.89 "Hg12 mi
11:00 AM57 °FCloudy.5 mph94%29.90 "Hg12 mi
10:00 AM55 °FSprinkles. Partly sunny.6 mph94%29.90 "Hg12 mi
9:00 AM54 °FSprinkles. Overcast.3 mph94%29.90 "Hg20 mi
8:00 AM52 °FSprinkles. Partly sunny.5 mph94%29.88 "Hg20 mi
7:00 AM52 °FSprinkles. Partly sunny.3 mph94%29.88 "Hg20 mi
6:00 AM50 °FOvercast.3 mph94%29.87 "Hg15 mi
5:00 AM50 °FOvercast.5 mph94%29.87 "Hg15 mi
4:00 AM50 °FPassing clouds.6 mph88%29.87 "Hg15 mi
3:00 AM52 °FPassing clouds.5 mph88%29.88 "Hg15 mi
2:00 AM52 °FOvercast.7 mph88%29.89 "Hg15 mi
Weather by CustomWeather, © 2014

See weather overviewHow to use our weather pages